This is the latest recevied weather packets stored in our database for station/object K7D3. If no packets are shown the sender has not sent any weather packets the latest 10 day(s).
| Time | Temp. | Humidity | Pressure | Rain* | Wind** | Luminosity | Snow |
|---|---|---|---|---|---|---|---|
| 1777763967 | 10.56° C | 31% | - | 0 mm | 2.68 m/s, 52° | - | - |
| 1777763485 | 10.56° C | 30% | - | 0 mm | 3.58 m/s, 10° | - | - |
| 1777763004 | 11.11° C | 31% | - | 0 mm | 0.89 m/s, 38° | - | - |
| 1777762526 | 10.56° C | 30% | - | 0 mm | 3.13 m/s, 23° | - | - |
| 1777762044 | 11.11° C | 29% | - | 0 mm | 2.24 m/s, 20° | - | - |
| 1777761565 | 11.11° C | 29% | - | 0 mm | 2.68 m/s, 52° | - | - |
| 1777761086 | 11.11° C | 29% | - | 0 mm | 2.68 m/s, 49° | - | - |
| 1777760604 | 10.56° C | 28% | - | 0 mm | 3.13 m/s, 31° | - | - |
| 1777760125 | 11.11° C | 28% | - | 0 mm | 1.79 m/s, 359° | - | - |
| 1777759647 | 10.56° C | 29% | - | 0 mm | 2.68 m/s, 266° | - | - |
| 1777759164 | 10.56° C | 28% | - | 0 mm | 4.02 m/s, 0° | - | - |
| 1777758685 | 11.11° C | 30% | - | 0 mm | 3.13 m/s, 77° | - | - |
| 1777758206 | 10.56° C | 28% | - | 0 mm | 4.02 m/s, 27° | - | - |
| 1777757724 | 10.56° C | 30% | - | 0 mm | 4.02 m/s, 32° | - | - |
| 1777757245 | 10.56° C | 30% | - | 0 mm | 4.92 m/s, 321° | - | - |
| 1777756767 | 10° C | 29% | - | 0 mm | 3.13 m/s, 353° | - | - |
| 1777756285 | 10.56° C | 31% | - | 0 mm | 3.58 m/s, 325° | - | - |
| 1777755804 | 10° C | 29% | - | 0 mm | 4.92 m/s, 336° | - | - |
| 1777755326 | 9.44° C | 29% | - | 0 mm | 5.36 m/s, 20° | - | - |
| 1777754844 | 10° C | 29% | - | 0 mm | 5.36 m/s, 294° | - | - |
| 1777754365 | 10° C | 29% | - | 0 mm | 3.13 m/s, 323° | - | - |
| 1777753887 | 10° C | 30% | - | 0 mm | 2.68 m/s, 65° | - | - |
| 1777753404 | 10° C | 27% | - | 0 mm | 3.58 m/s, 332° | - | - |
| 1777752926 | 10.56° C | 26% | - | 0 mm | 4.02 m/s, 39° | - | - |
| 1777752447 | 10° C | 28% | - | 0 mm | 3.58 m/s, 304° | - | - |
* Rain latest hour (hover to see other rain measurements)
** Current wind speed in m/s (hover to see current wind gust speed)